sat.trackr.live / text

‹ back to catalog

STARLINK-37115

NORAD 68297 · 2026-057D

PAYLOAD ACTIVE UNKNOWN

§ Identity

Operator
Country
US
Launch date
2026-03-20
Launch site
AFWTR
Launch vehicle
Mass (kg)
RCS (m²)

Purposes: comms

External: N2YO · Heavens-Above · Gunter

§ Orbital elements

Epoch: 2026-05-25T02:16:19.674624Z

Period
91.41 min
Inclination
97.2863°
Eccentricity
0.0001355
Mean motion
15.75235110 rev/d
Perigee alt
343.1 km
Apogee alt
344.9 km
Semi-major
6,722.1 km
B*
1.0075e-3
RAAN
271.3491°
Arg perigee
69.5919°
Mean anomaly
290.5491°
Rev number
1,031

§ Raw data

STARLINK-371151 68297U 26057D   26145.09467216  .00153171  00000+0  10075-2 0  99972 68297  97.2863 271.3491 0001355  69.5919 290.5491 15.75235110 10314

JSON: /api/v1/satellites/68297 · /tle

For live sub-satellite position, see the globe view (requires WebGL).

§ Visibility from observer

Set your observer location to see the next 7 days of passes ≥ 10°. The values pass through the URL so the page stays shareable.

No JS? Fill the form by hand. The geolocation button needs JavaScript.